Location: Amon Carter Post Office
(32.8281°N, 97.0484°W)
Time: 09:12:18
(UTC+00:00)

Meteor 1-31 Rocket - Pass Details

Date: 09 July 2022
Orbit: 517 x 541 km, 97.7° (Epoch: 18 August)

Event Time Altitude Azimuth Distance (km) Brightness Sun altitude
Rises 10:49:14 0° 37° (NE) 2,701 7.9 -7.8°
Reaches altitude 10° 10:52:32 10° 68° (ENE) 1,805 7.1 -7.2°
Maximum altitude 10:54:12 12° 94° (E) 1,652 6.2 -6.9°
Drops below altitude 10° 10:55:53 10° 119° (ESE) 1,801 5.9 -6.6°
Sets 10:59:08 0° 150° (SSE) 2,686 6.3 -6.0°
